When you browse on this site, cookies collect data to enhance your experience and personalize the content and advertising you see.
Visit our Privacy Policy to learn more. By continuing to use the site, you agree to this use of cookies and data.
  • In Hungary
  • List of Countries
  • For 7 days
  • Water Temperature
  • Weather Map
  • News
  • Weather Widgets
  • user-avatar
    Login

    Hourly Weather Vibo Valentia

    Today, 8 December, Sunday

    Time Temperature Precipitation Wind Pressure Humidity
    00:00 +10°C° 0.1 mm 2 mps 724 mmHg 91%
    01:00 +11°C° 0 mm 3 mps 724 mmHg 90%
    02:00 +11°C° 0.1 mm 3 mps 723 mmHg 91%
    03:00 +11°C° 0.1 mm 3 mps 723 mmHg 91%
    04:00 +11°C° 0.1 mm 3 mps 723 mmHg 92%
    05:00 +10°C° 0 mm 2 mps 723 mmHg 92%
    06:00 +10°C° 0 mm 2 mps 723 mmHg 91%
    07:00 +11°C° 0 mm 1 mps 724 mmHg 92%
    08:00 +12°C° 0 mm 2 mps 724 mmHg 87%
    09:00 +13°C° 0 mm 2 mps 724 mmHg 83%
    10:00 +14°C° 0 mm 2 mps 724 mmHg 78%
    11:00 +15°C° 0 mm 2 mps 724 mmHg 76%
    12:00 +15°C° 0 mm 2 mps 724 mmHg 74%
    13:00 +15°C° 0 mm 2 mps 723 mmHg 72%
    14:00 +15°C° 0 mm 2 mps 723 mmHg 75%
    15:00 +14°C° 0 mm 1 mps 723 mmHg 79%
    16:00 +13°C° 0 mm 1 mps 723 mmHg 82%
    17:00 +12°C° 0 mm 1 mps 723 mmHg 85%
    18:00 +11°C° 0 mm 1 mps 723 mmHg 87%
    19:00 +11°C° 0 mm 1 mps 723 mmHg 89%
    20:00 +10°C° 0 mm 1 mps 722 mmHg 86%
    21:00 +10°C° 0 mm 1 mps 722 mmHg 83%
    22:00 +10°C° 0 mm 1 mps 722 mmHg 80%
    23:00 +10°C° 0 mm 1 mps 722 mmHg 77%

    Tomorrow, 9 December, Monday

    Time Temperature Precipitation Wind Pressure Humidity
    00:00 +10°C° 0 mm 1 mps 721 mmHg 75%
    01:00 +9°C° 0 mm 1 mps 721 mmHg 73%
    02:00 +9°C° 0 mm 1 mps 720 mmHg 72%
    03:00 +9°C° 0 mm 1 mps 720 mmHg 71%
    04:00 +9°C° 0 mm 1 mps 719 mmHg 70%
    05:00 +9°C° 0 mm 1 mps 719 mmHg 72%
    06:00 +9°C° 0 mm 1 mps 719 mmHg 74%
    07:00 +9°C° 0 mm 1 mps 719 mmHg 75%
    08:00 +11°C° 0 mm 1 mps 719 mmHg 74%
    09:00 +12°C° 0 mm 1 mps 719 mmHg 73%
    10:00 +13°C° 0 mm 2 mps 719 mmHg 71%
    11:00 +13°C° 0 mm 2 mps 718 mmHg 71%
    12:00 +13°C° 0 mm 3 mps 718 mmHg 71%
    13:00 +13°C° 0 mm 4 mps 717 mmHg 71%
    14:00 +12°C° 0.1 mm 4 mps 717 mmHg 74%
    15:00 +12°C° 0.1 mm 4 mps 717 mmHg 78%
    16:00 +11°C° 0.1 mm 4 mps 716 mmHg 81%
    17:00 +11°C° 0.1 mm 4 mps 716 mmHg 84%
    18:00 +10°C° 0.1 mm 5 mps 716 mmHg 86%
    19:00 +9°C° 0.1 mm 5 mps 716 mmHg 89%
    20:00 +9°C° 0.2 mm 6 mps 716 mmHg 87%
    21:00 +9°C° 0.2 mm 6 mps 716 mmHg 86%
    22:00 +10°C° 0.2 mm 7 mps 716 mmHg 84%
    23:00 +10°C° 0.1 mm 7 mps 716 mmHg 83%

    Day after tomorrow, 10 December, Tuesday

    Time Temperature Precipitation Wind Pressure Humidity
    00:00 +9°C° 0.1 mm 7 mps 715 mmHg 82%
    01:00 +9°C° 0.1 mm 6 mps 715 mmHg 80%
    02:00 +9°C° 0.1 mm 6 mps 715 mmHg 82%
    03:00 +8°C° 0.1 mm 5 mps 714 mmHg 83%
    04:00 +8°C° 0.1 mm 4 mps 714 mmHg 85%
    05:00 +8°C° 0.7 mm 4 mps 714 mmHg 86%
    06:00 +9°C° 0.7 mm 3 mps 714 mmHg 88%
    07:00 +8°C° 0.7 mm 3 mps 714 mmHg 90%
    08:00 +9°C° 0.5 mm 2 mps 714 mmHg 86%
    09:00 +10°C° 0.5 mm 2 mps 714 mmHg 82%
    10:00 +10°C° 0.5 mm 2 mps 714 mmHg 78%
    11:00 +12°C° 0.6 mm 2 mps 714 mmHg 77%
    12:00 +12°C° 0.6 mm 2 mps 713 mmHg 75%
    13:00 +12°C° 0.6 mm 2 mps 713 mmHg 74%
    14:00 +12°C° 0.5 mm 2 mps 713 mmHg 77%
    15:00 +10°C° 0.5 mm 2 mps 713 mmHg 80%
    16:00 +10°C° 0.5 mm 2 mps 712 mmHg 83%
    17:00 +9°C° 0.4 mm 2 mps 713 mmHg 83%
    18:00 +9°C° 0.4 mm 2 mps 713 mmHg 84%
    19:00 +9°C° 0.4 mm 2 mps 713 mmHg 84%
    20:00 +9°C° 0.1 mm 2 mps 713 mmHg 84%
    21:00 +8°C° 0.1 mm 2 mps 713 mmHg 83%
    22:00 +8°C° 0.1 mm 2 mps 714 mmHg 83%
    23:00 +8°C° 0.2 mm 3 mps 714 mmHg 83%

    11 December, Wednesday

    Time Temperature Precipitation Wind Pressure Humidity
    00:00 +8°C° 0.2 mm 3 mps 714 mmHg 83%
    01:00 +8°C° 0.2 mm 4 mps 714 mmHg 83%
    02:00 +7°C° 0 mm 4 mps 714 mmHg 83%
    03:00 +7°C° 0 mm 5 mps 714 mmHg 83%
    04:00 +5°C° 0 mm 6 mps 714 mmHg 82%
    05:00 +6°C° 0 mm 5 mps 714 mmHg 82%
    06:00 +6°C° 0 mm 5 mps 714 mmHg 81%
    07:00 +6°C° 0 mm 5 mps 714 mmHg 80%
    08:00 +7°C° 0 mm 4 mps 715 mmHg 75%
    09:00 +8°C° 0 mm 4 mps 716 mmHg 70%
    10:00 +10°C° 0 mm 4 mps 716 mmHg 65%
    11:00 +10°C° 0 mm 3 mps 716 mmHg 64%
    12:00 +11°C° 0 mm 3 mps 716 mmHg 62%
    13:00 +11°C° 0 mm 3 mps 716 mmHg 61%
    14:00 +10°C° 0 mm 4 mps 716 mmHg 65%
    15:00 +10°C° 0 mm 4 mps 716 mmHg 69%
    16:00 +8°C° 0 mm 4 mps 716 mmHg 74%
    17:00 +7°C° 0 mm 4 mps 716 mmHg 75%
    18:00 +7°C° 0 mm 4 mps 717 mmHg 76%
    19:00 +6°C° 0 mm 4 mps 717 mmHg 78%
    20:00 +6°C° 0 mm 4 mps 717 mmHg 77%
    21:00 +6°C° 0 mm 4 mps 717 mmHg 76%
    22:00 +6°C° 0 mm 4 mps 718 mmHg 76%
    23:00 +6°C° 0 mm 5 mps 717 mmHg 77%

    12 December, Thursday

    Time Temperature Precipitation Wind Pressure Humidity
    00:00 +6°C° 0 mm 5 mps 717 mmHg 78%
    01:00 +6°C° 0 mm 5 mps 717 mmHg 79%
    02:00 +6°C° 0 mm 5 mps 717 mmHg 79%
    03:00 +7°C° 0 mm 5 mps 717 mmHg 79%
    04:00 +7°C° 0 mm 6 mps 717 mmHg 79%
    05:00 +7°C° 0 mm 5 mps 717 mmHg 79%
    06:00 +7°C° 0 mm 5 mps 717 mmHg 78%
    07:00 +7°C° 0 mm 5 mps 717 mmHg 77%
    08:00 +8°C° 0.1 mm 5 mps 717 mmHg 79%
    09:00 +8°C° 0.1 mm 5 mps 717 mmHg 81%
    10:00 +8°C° 0.1 mm 5 mps 717 mmHg 82%
    11:00 +9°C° 0.4 mm 6 mps 717 mmHg 82%
    12:00 +9°C° 0.4 mm 7 mps 716 mmHg 82%
    13:00 +10°C° 0.4 mm 7 mps 716 mmHg 82%
    14:00 +9°C° 0.3 mm 8 mps 716 mmHg 82%
    15:00 +9°C° 0.3 mm 8 mps 716 mmHg 81%
    16:00 +8°C° 0.3 mm 9 mps 716 mmHg 80%
    17:00 +8°C° 0.2 mm 10 mps 716 mmHg 79%
    18:00 +8°C° 0.2 mm 10 mps 716 mmHg 77%
    19:00 +7°C° 0.2 mm 11 mps 716 mmHg 76%
    20:00 +7°C° 0.1 mm 11 mps 716 mmHg 74%
    21:00 +7°C° 0.1 mm 11 mps 716 mmHg 71%
    22:00 +7°C° 0.1 mm 11 mps 716 mmHg 69%
    23:00 +7°C° 0.1 mm 11 mps 716 mmHg 70%

    13 December, Friday

    Time Temperature Precipitation Wind Pressure Humidity
    00:00 +7°C° 0.1 mm 10 mps 716 mmHg 72%
    01:00 +7°C° 0.1 mm 10 mps 716 mmHg 74%
    02:00 +7°C° 0.2 mm 9 mps 716 mmHg 76%
    03:00 +7°C° 0.2 mm 9 mps 716 mmHg 78%
    04:00 +7°C° 0.2 mm 8 mps 716 mmHg 80%
    05:00 +7°C° 0.4 mm 8 mps 716 mmHg 80%
    06:00 +7°C° 0.4 mm 8 mps 716 mmHg 80%
    07:00 +7°C° 0.4 mm 8 mps 716 mmHg 80%
    08:00 +7°C° 0.1 mm 8 mps 716 mmHg 77%
    09:00 +9°C° 0.1 mm 7 mps 716 mmHg 75%
    10:00 +9°C° 0.1 mm 7 mps 716 mmHg 72%
    11:00 +9°C° 0.3 mm 7 mps 716 mmHg 74%
    12:00 +9°C° 0.3 mm 8 mps 715 mmHg 76%
    13:00 +8°C° 0.3 mm 9 mps 715 mmHg 79%
    14:00 +8°C° 0.4 mm 9 mps 715 mmHg 80%
    15:00 +8°C° 0.4 mm 9 mps 715 mmHg 81%
    16:00 +8°C° 0.4 mm 9 mps 714 mmHg 82%
    17:00 +8°C° 0.2 mm 9 mps 714 mmHg 83%
    18:00 +8°C° 0.2 mm 10 mps 714 mmHg 85%
    19:00 +8°C° 0.2 mm 10 mps 714 mmHg 86%
    20:00 +9°C° 0.8 mm 11 mps 713 mmHg 86%
    21:00 +9°C° 0.8 mm 11 mps 713 mmHg 87%
    22:00 +9°C° 0.8 mm 12 mps 713 mmHg 88%
    23:00 +10°C° 0.8 mm 13 mps 712 mmHg 87%
    Show more